Weather reports worldwide

Advertisment
Santander/Parayas, Spain (8021): temperature & dewpoint: 14.06.2019 06:00:00 - 20.06.2019 06:00:00 (CEST)Santander/Parayas, Spain (8021): wind speed: 14.06.2019 06:00:00 - 20.06.2019 06:00:00 (CEST)Santander/Parayas, Spain (8021): wind direction: 14.06.2019 06:00:00 - 20.06.2019 06:00:00 (CEST)Santander/Parayas, Spain (8021): reduced air pressure: 14.06.2019 06:00:00 - 20.06.2019 06:00:00 (CEST)Santander/Parayas, Spain (8021): visibility: 14.06.2019 06:00:00 - 20.06.2019 06:00:00 (CEST)
Date & Time tt [°C] td [°C] ff [km/h] ff [kn] dd ppp [hPa] vv [km]
20.06.2019 06:00:00 - - - - - - -
20.06.2019 05:00:00 16,0 15,5 5 3 WSW 1017,7 -
20.06.2019 04:00:00 16,3 15,8 4 2 WNW 1017,8 -
20.06.2019 03:00:00 16,6 15,8 9 5 W 1018,1 -
20.06.2019 02:00:00 16,8 15,7 8 4 W 1018,1 -
20.06.2019 01:00:00 16,8 15,6 8 4 WSW 1018,2 -
20.06.2019 00:00:00 16,7 15,7 8 4 SW 1018,1 -
19.06.2019 23:00:00 16,6 15,6 8 4 WSW 1018,0 10
19.06.2019 22:00:00 17,4 15,9 16 9 WNW 1017,4 -
19.06.2019 21:00:00 18,8 15,5 9 5 W 1017,1 -
19.06.2019 20:00:00 19,1 15,8 9 5 WNW 1016,5 20
19.06.2019 19:00:00 19,4 15,8 11 6 NW 1016,0 -
19.06.2019 18:00:00 19,7 15,1 11 6 NNW 1015,9 -
19.06.2019 17:00:00 20,2 14,8 13 7 N 1015,7 20
19.06.2019 16:00:00 21,2 15,2 11 6 N 1015,4 -
19.06.2019 15:00:00 21,8 16,4 16 9 ENE 1015,0 -
19.06.2019 14:00:00 20,9 16,2 15 8 ENE 1014,8 20
19.06.2019 13:00:00 20,5 17,1 13 7 ENE 1014,7 -
19.06.2019 12:00:00 20,1 16,6 5 3 WNW 1014,5 -
19.06.2019 11:00:00 19,4 16,4 8 4 NW 1014,0 8
19.06.2019 10:00:00 18,9 16,5 13 7 WNW 1013,7 -
19.06.2019 09:00:00 17,3 16,0 9 5 W 1013,0 -
19.06.2019 08:00:00 15,3 14,8 5 3 SW 1012,6 5
19.06.2019 07:00:00 13,6 13,1 4 2 SW 1012,7 -
19.06.2019 06:00:00 13,5 13,0 5 3 W 1012,5 -
19.06.2019 05:00:00 13,6 12,9 2 1 S 1012,0 -
19.06.2019 04:00:00 14,4 13,8 4 2 SSW 1011,7 -
19.06.2019 03:00:00 14,9 14,1 4 2 WSW 1011,5 -
19.06.2019 02:00:00 15,6 14,6 2 1 SE 1011,5 -
19.06.2019 01:00:00 16,3 15,3 4 2 NNE 1012,1 -
19.06.2019 00:00:00 15,9 14,8 0 0 N 1012,6 -
18.06.2019 23:00:00 16,1 14,8 2 1 SW 1012,6 20
18.06.2019 22:00:00 17,0 15,0 5 3 W 1011,9 -
18.06.2019 21:00:00 20,1 15,9 8 4 NW 1010,8 -
18.06.2019 20:00:00 20,7 16,1 8 4 WNW 1010,3 20
18.06.2019 19:00:00 20,1 16,0 13 7 WNW 1010,4 -
18.06.2019 18:00:00 20,3 16,1 15 8 W 1010,3 -
18.06.2019 17:00:00 20,2 16,2 18 10 W 1010,3 15
18.06.2019 16:00:00 19,3 16,1 16 9 WNW 1010,4 -
18.06.2019 15:00:00 20,1 17,1 28 15 WNW 1010,0 -
18.06.2019 14:00:00 22,5 18,6 22 12 NW 1008,3 15
18.06.2019 13:00:00 27,1 19,6 18 10 NW 1008,0 -
18.06.2019 12:00:00 22,5 18,4 11 6 NE 1008,5 -
18.06.2019 11:00:00 20,8 16,6 11 6 ENE 1009,3 12
18.06.2019 10:00:00 20,5 16,3 8 4 ENE 1010,0 -
18.06.2019 09:00:00 18,6 16,2 2 1 SSW 1010,4 -
18.06.2019 08:00:00 15,4 14,9 4 2 SW 1010,9 6
18.06.2019 07:00:00 13,6 13,3 2 1 SSW 1010,6 -
18.06.2019 06:00:00 13,5 12,9 4 2 N 1010,6 -
18.06.2019 05:00:00 14,7 14,2 8 4 ESE 1010,9 -
18.06.2019 04:00:00 13,6 12,7 4 2 SE 1012,0 -
18.06.2019 03:00:00 15,6 14,3 0 0 N 1012,9 -
18.06.2019 02:00:00 16,3 14,7 5 3 NW 1013,4 -
18.06.2019 01:00:00 16,5 14,9 8 4 WSW 1014,5 -
18.06.2019 00:00:00 16,6 14,8 9 5 WNW 1014,5 -
17.06.2019 23:00:00 17,0 14,6 8 4 SW 1014,6 12
17.06.2019 22:00:00 17,2 14,5 9 5 SW 1014,8 -
17.06.2019 21:00:00 17,5 14,6 11 6 WSW 1015,0 -
17.06.2019 20:00:00 17,9 15,0 16 9 W 1015,1 18
17.06.2019 19:00:00 17,8 14,9 15 8 W 1014,7 -
17.06.2019 18:00:00 17,9 14,6 18 10 WNW 1014,9 -
17.06.2019 17:00:00 18,8 15,5 13 7 WNW 1014,5 15
17.06.2019 16:00:00 19,9 16,1 11 6 NNW 1014,4 -
17.06.2019 15:00:00 20,6 16,3 11 6 N 1014,3 -
17.06.2019 14:00:00 20,2 16,2 11 6 N 1014,8 8
17.06.2019 13:00:00 20,6 16,1 8 4 NE 1015,4 -
17.06.2019 12:00:00 19,4 16,0 11 6 ENE 1015,9 -
17.06.2019 11:00:00 18,7 15,5 8 4 NE 1016,5 6
17.06.2019 10:00:00 16,8 15,0 0 0 N 1016,7 -
17.06.2019 09:00:00 15,9 14,9 2 1 E 1016,8 -
17.06.2019 08:00:00 15,5 14,9 8 4 SW 1017,1 6
17.06.2019 07:00:00 15,3 14,8 5 3 WSW 1017,5 -
17.06.2019 06:00:00 14,8 14,5 2 1 W 1017,6 -
17.06.2019 05:00:00 13,1 12,8 8 4 SW 1017,9 -
17.06.2019 04:00:00 13,0 12,5 5 3 SW 1018,2 -
17.06.2019 03:00:00 13,4 12,8 4 2 SSW 1018,9 -
17.06.2019 02:00:00 13,8 12,9 4 2 SSW 1019,3 -
17.06.2019 01:00:00 14,3 13,0 4 2 SSW 1019,7 -
17.06.2019 00:00:00 15,2 13,4 0 0 N 1020,2 -
16.06.2019 23:00:00 16,9 14,4 5 3 ENE 1020,1 30
16.06.2019 22:00:00 17,5 14,4 8 4 ENE 1019,6 -
16.06.2019 21:00:00 18,4 14,3 9 5 NE 1019,5 -
16.06.2019 20:00:00 18,8 14,6 15 8 NNE 1019,2 30
16.06.2019 19:00:00 19,3 15,3 18 10 NE 1018,7 -
16.06.2019 18:00:00 19,8 15,8 22 12 NE 1018,5 -
16.06.2019 17:00:00 20,1 15,7 22 12 NE 1018,5 30
16.06.2019 16:00:00 20,2 15,7 26 14 NE 1018,5 -
16.06.2019 15:00:00 20,8 15,7 26 14 NE 1018,7 -
16.06.2019 14:00:00 20,7 15,4 24 13 NE 1019,3 45
16.06.2019 13:00:00 20,7 15,1 24 13 NE 1019,7 -
16.06.2019 12:00:00 20,3 14,4 21 11 NE 1020,3 -
16.06.2019 11:00:00 19,8 11,7 15 8 ENE 1020,8 45
16.06.2019 10:00:00 17,6 12,2 4 2 ENE 1021,3 -
16.06.2019 09:00:00 16,0 11,4 0 0 N 1021,4 -
16.06.2019 08:00:00 12,7 10,9 4 2 ESE 1021,3 30
16.06.2019 07:00:00 9,7 8,9 0 0 N 1021,4 -
16.06.2019 06:00:00 9,9 9,0 0 0 N 1021,5 -
16.06.2019 05:00:00 10,8 9,7 0 0 N 1021,7 -
16.06.2019 04:00:00 11,1 10,0 4 2 SW 1022,1 -
16.06.2019 03:00:00 11,7 10,4 2 1 S 1022,5 -
16.06.2019 02:00:00 12,6 10,8 0 0 N 1023,1 -
16.06.2019 01:00:00 14,2 11,5 8 4 ENE 1023,3 -
16.06.2019 00:00:00 15,7 12,3 4 2 ENE 1023,6 -
15.06.2019 23:00:00 16,5 12,3 8 4 ENE 1023,6 25
15.06.2019 22:00:00 16,5 11,2 5 3 WNW 1023,2 -
15.06.2019 21:00:00 17,2 11,9 4 2 W 1023,2 -
15.06.2019 20:00:00 17,6 11,5 9 5 W 1023,0 30
15.06.2019 19:00:00 18,3 11,4 8 4 WNW 1022,7 -
15.06.2019 18:00:00 18,8 9,5 11 6 N 1022,6 -
15.06.2019 17:00:00 19,1 11,2 13 7 N 1022,5 30
15.06.2019 16:00:00 19,9 11,6 15 8 NNW 1022,0 -
15.06.2019 15:00:00 20,2 11,5 15 8 N 1021,7 -
15.06.2019 14:00:00 20,3 12,2 16 9 NNW 1021,5 30
15.06.2019 13:00:00 19,5 10,4 16 9 NNW 1021,4 30
15.06.2019 12:00:00 20,7 11,6 8 4 N 1021,1 -
15.06.2019 11:00:00 19,9 11,4 5 3 S 1020,7 30
15.06.2019 10:00:00 18,6 11,4 8 4 S 1020,6 -
15.06.2019 09:00:00 15,5 12,4 9 5 SW 1020,2 -
15.06.2019 08:00:00 14,3 12,7 4 2 SW 1019,5 25
15.06.2019 07:00:00 12,1 10,8 8 4 SSW 1019,2 -
15.06.2019 06:00:00 12,8 11,7 5 3 SW 1019,1 -
15.06.2019 05:00:00 12,6 11,8 5 3 SSW 1018,9 -
15.06.2019 04:00:00 12,6 11,8 0 0 N 1018,9 -
15.06.2019 03:00:00 12,7 11,8 4 2 W 1018,9 -
15.06.2019 02:00:00 12,6 11,5 4 2 W 1018,6 -
15.06.2019 01:00:00 13,1 11,8 2 1 SW 1018,6 -
15.06.2019 00:00:00 13,0 11,7 4 2 SW 1018,3 -
14.06.2019 23:00:00 13,3 11,0 5 3 WSW 1017,9 20
14.06.2019 22:00:00 15,1 12,0 4 2 W 1016,8 -
14.06.2019 21:00:00 16,0 12,7 8 4 E 1016,2 -
14.06.2019 20:00:00 16,0 12,8 8 4 ESE 1015,6 25
14.06.2019 19:00:00 15,7 12,8 8 4 SE 1015,3 -
14.06.2019 18:00:00 15,6 12,6 11 6 ENE 1015,3 -
14.06.2019 17:00:00 15,9 12,6 13 7 NE 1015,1 20
14.06.2019 16:00:00 15,9 12,8 15 8 NE 1014,8 -
14.06.2019 15:00:00 16,3 13,0 16 9 NE 1014,6 -
14.06.2019 14:00:00 16,5 13,2 16 9 NE 1014,3 20
14.06.2019 13:00:00 17,2 13,1 16 9 NE 1014,1 -
14.06.2019 12:00:00 16,7 12,5 13 7 NNE 1014,1 -
14.06.2019 11:00:00 16,8 12,4 13 7 NE 1014,1 20
14.06.2019 10:00:00 16,6 13,3 8 4 ENE 1013,9 -
14.06.2019 09:00:00 13,5 12,7 0 0 N 1013,9 -
14.06.2019 08:00:00 12,0 11,7 4 2 S 1013,9 20
14.06.2019 07:00:00 11,3 11,1 0 0 N 1013,8 -
14.06.2019 06:00:00 10,3 10,1 0 0 N 1013,6 -

tt = temperature
td = dewpoint
ff = wind speed
dd = wind direction
ppp = reduced air pressure
vv = visibility

Next stations